KUIPER-00526

导读

KUIPER-00526(NORAD 69764)是美国亚马逊低轨卫星星座(原柯伊伯计划Project Kuiper)的组网通信卫星,属于该全球低轨互联网星座部署批次卫星,采用Ka频段通信、星间激光链路技术,运行于约590-630公里高度的近地轨道,为全球偏远及网络不足区域提供高速低延迟宽带接入,可对接AWS云服务支持政企、物联网等场景,是亚马逊太空通信基础设施组成部分,目前处于在轨部署阶段。

Basic Information
目录编号:
69764
目录名称:
KUIPER-00526
国际标识:
2026-151B
轨道中心:
EARTH
卫星名称:
KUIPER-00526
卫星全名:
KUIPER-00526
卫星状态:
在轨 (已飞行12 天)
发射日期:
2026-07-02 UTC
国别 :
美国 (US)
星等 :
--
Orbit Information
数据来源 国际轨道数据 AOE轨道数据
星历时间 2026-07-13T19:55:29+0800
16小时前
查看轨道信息
2026-07-12T02:00:00+0800
2天前
查看轨道信息
半长轴 6832.244km 6832.306km
偏心率 0.0005901 0.0006083
轨道倾角 51.875° 51.877°
近地点辐角 128.167° 129.829°
升交点赤经 188.605° 197.050°
平近点角 231.985° 276.648°
近地点 450.075km 450.012km
远地点 458.139km 458.326km
周期 93.671分钟 93.672分钟
每日圈数 15.37297 15.372761
Detailed Information
使用方式:
暂无
2D Orbit Map
3D Orbit Map
Orbit Altitude Analysis Chart
Orbit Inclination Analysis Chart
Orbit Comprehensive Analysis Chart
View Comprehensive Chart